Regional Weather Roundup
Issued by NWS Upton, NY

Current Version | Previous Version | Text Only | Print | Product List | Glossary On
Versions: 1 2 3 4 5 6 7 8 9 10 11 12 13 14 15 16 17 18 19 20 21 22 23 24 25 26 27 28 29 30 31 32 33 34 35 36 37 38 39 40 41 42 43 44 45 46 47 48 49 50
846
ASUS41 KOKX 301404
RWROKX

REGIONAL WEATHER ROUNDUP
NATIONAL WEATHER SERVICE NEW YORK NY
1000 AM EDT MON MAY 30 2016

NOTE: "FAIR" INDICATES FEW OR NO CLOUDS BELOW 12,000 FEET WITH NO
SIGNIFICANT WEATHER AND/OR OBSTRUCTIONS TO VISIBILITY.

NYZ071-072-176-178-NJZ106-104-301500-
NEW YORK CITY METRO AREA


CITY           SKY/WX    TMP DP  RH WIND       PRES   REMARKS
CENTRAL PARK   CLOUDY    69  66  90 VRB3      30.04S
LAGUARDIA APRT CLOUDY    69  68  96 NW5       30.00S
KENNEDY INTL   CLOUDY    70  68  93 S6        30.01F
NEWARK/LIBERTY CLOUDY    73  68  84 W5        30.01S
BRNX BOT. GARD   N/A     68  66  94 W3        30.03S
TETERBORO      LGT RAIN  71  64  78 CALM      29.99F
$$

NYZ177-179-078>081-301500-
LONG ISLAND NEW YORK

CITY           SKY/WX    TMP DP  RH WIND       PRES   REMARKS
FARMINGDALE    CLOUDY    69  68  96 W7        30.00F
ISLIP          LGT RAIN  69  68  96 SW8       30.00F FOG
SHIRLEY        LGT RAIN  69  68  96 SW8       30.01S
RIVERHEAD        N/A     70  68  94 CALM      29.99F
WESTHAMPTON    LGT RAIN  66  65  96 SW8       30.02F
EAST HAMPTON   FOG       65  65  99 SW10G16   30.01S VSB 1/2
MONTAUK POINT    N/A     66  66 100 SW9       30.03S
$$

NYZ052-065-067-301500-
HUDSON VALLEY

CITY           SKY/WX    TMP DP  RH WIND       PRES   REMARKS
WHITE PLAINS   CLOUDY    68  66  93 NW3       30.00F FOG
NEWBURGH       PTSUNNY   68  66  94 W6        30.02S
MONTGOMERY     CLOUDY    69  65  86 SW7       30.01S
POUGHKEEPSIE   CLOUDY    70  65  84 S6        29.99S
ALBANY         MOSUNNY   70  63  78 S12       29.97F
$$

NJZ001-105-106-008-010-013-015-019>022-104-301500-
NEW JERSEY

CITY           SKY/WX    TMP DP  RH WIND       PRES   REMARKS
NEWARK/LIBERTY CLOUDY    73  68  84 W5        30.01S
TETERBORO      LGT RAIN  71  64  78 CALM      29.99F
CALDWELL       CLOUDY    70  65  84 CALM      30.02S
MORRISTOWN     CLOUDY    72  68  88 CALM      30.02S
SOMERVILLE     CLOUDY    73  67  81 VRB3      29.99F
SUSSEX         CLOUDY    68  63  84 CALM      30.02F
ANDOVER          N/A     68  64  87 CALM      30.02F
TRENTON        CLOUDY    73  68  84 VRB3      30.01F
MILLVILLE      LGT RAIN  73  70  90 SW3       30.02S
ATLANTIC CITY  LGT RAIN  72  71  97 S3        30.02S
WRIGHTSTOWN    CLOUDY    73  70  92 W6        30.00S
TOMS RIVER     CLOUDY   N/A N/A N/A SW5       30.02S
BELMAR         CLOUDY    72  71  97 W5        30.03S
$$

PAZ047>061-062-071-301500-
EASTERN PENNSYLVANIA

CITY           SKY/WX    TMP DP  RH WIND       PRES   REMARKS
PHILADELPHIA   CLOUDY    73  66  78 CALM      30.03S
ALLENTOWN      CLOUDY    71  66  84 W3        30.02F
SCRANTON       CLOUDY    70  63  78 SW3       30.02F
$$

CTZ002-004>006-009-010-012-RIZ004-006-007-MAZ004-011-015-301500-
SOUTHERN NEW ENGLAND
 IN CT

CITY           SKY/WX    TMP DP  RH WIND       PRES   REMARKS
BRADLEY INTL   RAIN      66  64  93 CALM      29.99S FOG
HARTFORD       CLOUDY    69  66  90 N3        30.00R FOG
DANBURY        CLOUDY    67  63  87 CALM      30.02S
WTRBRY/OXFORD  CLOUDY    64  63  94 NW3       30.03S FOG
BRIDGEPORT     LGT RAIN  69  67  93 W6        30.00S FOG
MERIDEN        CLOUDY    70  67  90 CALM      30.00R FOG
NEW HAVEN      FOG       67  67 100 CALM      29.99S VSB 1
CHESTER        FOG       68  68 100 S7        30.01S VSB 3/4
GROTON         LGT RAIN  64  64 100 S7        30.00S VSB 1/2
WILLIMANTIC    CLOUDY    66  63  90 SW5       30.00F

 IN RI

CITY           SKY/WX    TMP DP  RH WIND       PRES   REMARKS
PROVIDENCE     LGT RAIN  61  59  93 SE3       30.02S
BLOCK ISLAND   LGT RAIN  64  64 100 SW17G24   30.01F FOG
WESTERLY       FOG       65  63  93 SW7       30.01S VSB 1

 IN MA

CITY           SKY/WX    TMP DP  RH WIND       PRES   REMARKS
BOSTON         CLOUDY    56  55  97 E3        30.01F FOG
WORCESTER      LGT RAIN  61  59  93 NW3       30.02S FOG
WESTFIELD      LGT RAIN  65  63  93 CALM      29.99F
PROVINCETOWN   LGT RAIN  58  58 100 CALM      30.02S FOG
NANTUCKET      FOG       66  64  93 S17       30.03S VSB 1
$$

ANZ330-335-338-340-345-350-353-355-301500-
COASTAL MARINE OBSERVATIONS


STATION/POSITION TIME  SKY/WX   TEMP    WIND        PRES    VSBY  WAVE
                                AIR SEA DIR/SP/G                  HT/PER
                 (UTC)          (F)     (DEG/KT/KT) (MB)    (MI)  (FT/S)
NY HARB ENTRANCE 1250            62 58  210/ 12/ 14 1016.0          2/ 8
20S FIRE ISLAND  1250            64 61  220/ 14/ 16 1016.1          3/ 8
GREAT SOUTH BAY  1300            67 71  230/ 16/ 19   N/A
23 SSW MONTAUK P 1350            64 59  210/ 16/ 17 1016.1          3/ 8
15 E BARNEGAT LI 1322               60                N/A           3/ 7
HUDSON CANYON    1250            64 58              1017.1          4/ 6
KINGS POINT      1300            67 61              1015.9
EXECUTION ROCKS  NOT AVBL
CENTRAL LI SOUND 1300            66     190/  6/ 10   N/A           0
EASTERN LI SOUND 1300            59 54  170/  4/  6   N/A
ROBBINS REEF     1300            69     260/  6/  6 1015.6
$$


>>>>>>>>>>>>>>>>>>>>>>>>>>>> KEY <<<<<<<<<<<<<<<<<<<<<<<<<<<
>                                                          <
>     SKY/WX - SKY CONDITION/PRESENT WEATHER               <
>     TMP    - TEMPERATURE IN FAHRENHEIT                   <
>     DP     - DEWPOINT IN FAHRENHEIT                      <
>     RH     - RELATIVE HUMIDITY IN PERCENT                <
>     WIND   - DIRECTION AND SPEED IN MPH                  <
>     PRES   - MEAN SEA LEVEL PRESSURE IN INCHES OF HG     <
>     WCI    - WIND CHILL INDEX                            <
>     VSB    - VISIBILITY IN MILES                         <
>     HX     - HEAT INDEX                                  <
>     TC     - TEMPERATURE IN CELSIUS                      <
>     VRB    - VARIABLE WIND DIRECTION                     <
>                                                          <
>>>>>>>>>>>>>>>>>>>>>>>>>>>> KEY <<<<<<<<<<<<<<<<<<<<<<<<<<<






USA.gov is the U.S. government's official web portal to all federal, state and local government web resources and services.